AirNav   Air Wisconsin pilot careers
 
 348 users online  

1A4 Logan Field Airport
Samson, Alabama, USA

GOING TO SAMSON?


FAA INFORMATION EFFECTIVE 08 NOVEMBER 2018

Location

FAA Identifier: 1A4
Lat/Long: 31-06-13.3300N / 086-03-45.3600W
31-06.222167N / 086-03.756000W
31.1037028 / -86.0626000
(estimated)
Elevation: 200 ft. / 61 m (estimated)
From city: 1 mile SW of SAMSON, AL
Time zone: UTC -6 (UTC -5 during Daylight Saving Time)
Zip code: 36477

Airport Operations

Airport use: Open to the public
Activation date: 12/2003
Control tower: no
ARTCC: JACKSONVILLE CENTER
FSS: ANNISTON FLIGHT SERVICE STATION
NOTAMs facility: ANB (NOTAM-D service available)
Attendance: UNATNDD
Wind indicator: yes
Segmented circle: no
Lights: ACTVT MIRL RY 05/23 - CTAF.
Beacon: white-green (lighted land airport)
Operates sunset to sunrise.

Airport Communications

CTAF: 122.9
WX AWOS-3PT at EDN (14 nm NE): 118.9 (334-347-3524)

Nearby radio navigation aids

VOR radial/distance  VOR name  Freq  Var
EDNr218/(14.2)ENTERPRISE VOR116.6003W
OZRr243/19.9CAIRNS VOR/DME111.2003W
HEYr235/(26.6)HANCHEY VOR110.6003W
RRSr249/34.2WIREGRASS VORTAC111.6002E
CEWr059/35.8CRESTVIEW VORTAC115.9003E

 
NDB name  Hdg/Dist  Freq  Var  ID
RUCKR243/14.621203WOZ --- --..
BOLL WEEVIL199/14.735203WBVG -... ...- --.
JUDD128/20.726402WJUY .--- ..- -.--
LOWE230/22.526903WLOR .-.. --- .-.
HANCHEY235/26.622103WHYE .... -.-- .

Airport Services

Airframe service: NONE
Powerplant service: NONE

Runway Information

Runway 5/23

Dimensions: 3596 x 75 ft. / 1096 x 23 m
Surface: asphalt, in fair condition
Runway edge lights: medium intensity
Runway edge markings: MARKINGS POOR DUE TO FADING
RUNWAY 5  RUNWAY 23
Latitude: 31-06.039167N31-06.405167N
Longitude: 086-04.027667W086-03.484333W
Traffic pattern: leftleft
Displaced threshold: 476 ft.181 ft.
Markings: basic, in poor conditionbasic, in poor condition
Obstructions: 81 ft. trees, 1002 ft. from runway, 190 ft. left of centerline, 8:1 slope to clear
16:1 SLOPE TO DSPLCD THLD.
8 ft. road, 252 ft. from runway, 38 ft. right of centerline, 6:1 slope to clear
15:1 SLOPE TO DSPLCD THLD.

Airport Ownership and Management from official FAA records

Ownership: Publicly-owned
Owner: CITY OF SAMSON
104 E MAIN STREET
SAMSON, AL 36477
Phone 334-898-7541
Manager: AIR HAMMER/MIKE PASCOE
395 S. MAGNOLIA ST
SAMSON, AL 36477
Phone 334-898-1303
AFTER HOURS 334-898-2700.

Airport Operational Statistics

Aircraft based on the field: 5
Single engine airplanes: 3
Multi engine airplanes: 2
    
Aircraft operations: avg 23/day *
96% transient general aviation
4% local general aviation
* for 12-month period ending 28 February 2018

Additional Remarks

RY 5/23 CLSD TO HEL WITH TAILWHEELS EXC ADJ SOD AREA.

Instrument Procedures

There are no published instrument procedures at 1A4.

Some nearby airports with instrument procedures:

33J - Geneva Municipal Airport (10 nm E)
0J4 - Florala Municipal Airport (13 nm W)
KEDN - Enterprise Municipal Airport (14 nm NE)
KOZR - Cairns Army Airfield (Fort Rucker) (21 nm NE)
79J - South Alabama Regional Airport at Bill Benton Field (21 nm NW)
 
Loc | Ops | Rwys | IFR | FBO | Links
Com | Nav | Svcs | Stats | Notes


 
Area around 1A4 (Logan Field Airport)
 
Road maps at: MapQuest Bing Google
 
Aerial photo
WARNING: Photo may not be current or correct
Aerial photo of 1A4 (Logan Field Airport)
Photo by Mike Pascoe
Photo taken 20-Feb-2012
looking northeast.

Do you have a better or more recent aerial photo of Logan Field Airport that you would like to share? If so, please send us your photo.

 
Sectional chart

 
Airport distance calculator
Flying to Logan Field Airport? Find the distance to fly.

From to 1A4

Sunrise and sunset
Times for 18-Nov-2018
 Local
(UTC-6)
 Zulu
(UTC)
Morning civil twilight05:4911:49
Sunrise06:1512:15
Sunset16:4422:44
Evening civil twilight17:1023:10

Current date and time
Zulu (UTC)  18-Nov-2018 09:12:43
Local (UTC-6)  18-Nov-2018 03:12:43
 
METAR
K0J4 
13nm W 
180858Z AUTO 00000KT 10SM CLR 07/05 A3022 RMK AO2 SLP232 T00670050 56002 $
KEDN 
14nm NE 
180855Z AUTO 00000KT 7SM CLR 05/05 A3020 RMK AO2 T00530053
KSXS 
19nm NE 
180858Z AUTO 35003KT 10SM CLR 07/06 A3019 RMK AO2 SLP225 T00680058 56002
KOZR 
21nm NE 
180856Z AUTO 00000KT 10SM CLR 05/05 A3019 RMK AO2 SLP226 T00510045 55003
K79J 
22nm NW 
180856Z AUTO 00000KT 10SM CLR 07/04 A3020 RMK AO2 SLP224 T00670039 58002
KLOR 
22nm NE 
180858Z AUTO 00000KT 10SM CLR 04/04 A3019 RMK AO2 SLP207 T00380038 57003
K54J 
23nm S 
180415Z AUTO 35003KT 7SM CLR 09/08 A3022 RMK AO2 T00910080
KHEY 
25nm NE 
180858Z AUTO 00000KT 10SM CLR 05/05 A3019 RMK AO2 SLP226 T00510051 55003
TAF
KOZR 
21nm NE 
180000Z 1800/1906 VRB06KT 9999 FEW200 QNH3017INS TX21/1820Z TN06/1812Z LAST NO AMDS AFT 1807 NEXT 1907
NOTAMs
Click for the latest NOTAMs
NOTAMs are issued by the DoD/FAA and will open in a separate window not controlled by AirNav.

 

 
 

Would you like to see your business listed on this page?

 If your business provides an interesting product or service to pilots, flight crews, aircraft, or users of the Logan Field Airport, you should consider listing it here.  To start the listing process, click on the button below
 
Add a business
 

Other Pages about Logan Field Airport

Update a link
 
Copyright © AirNav, LLC. All rights reserved. Privacy Policy  Contact